• In Österreich
  • Länderverzeichnis
  • Für 7 Tage
  • Wassertemperatur
  • Satellitenkarten
  • Wetterkarte
  • News
  • Widgets
  • user-avatar
    Anmelden

    Stündliche Wetter Bregenz

    Heute, 16 Oktober, Dienstag

    Zeit Temperatur Niederschläge Wind Luftdruck Luftfeuchtigkeit
    00:00 +6°C° 0 mm 2 m/S 647 mmHg 80%
    01:00 +6°C° 0 mm 2 m/S 647 mmHg 80%
    02:00 +5°C° 0 mm 2 m/S 647 mmHg 80%
    03:00 +5°C° 0 mm 2 m/S 646 mmHg 80%
    04:00 +5°C° 0 mm 2 m/S 646 mmHg 80%
    05:00 +5°C° 0 mm 2 m/S 647 mmHg 79%
    06:00 +5°C° 0 mm 2 m/S 647 mmHg 78%
    07:00 +5°C° 0 mm 2 m/S 647 mmHg 77%
    08:00 +8°C° 0 mm 1 m/S 648 mmHg 69%
    09:00 +11°C° 0 mm 1 m/S 648 mmHg 62%
    10:00 +13°C° 0 mm 1 m/S 649 mmHg 54%
    11:00 +14°C° 0 mm 1 m/S 649 mmHg 52%
    12:00 +15°C° 0 mm 1 m/S 649 mmHg 49%
    13:00 +16°C° 0 mm 1 m/S 650 mmHg 46%
    14:00 +16°C° 0 mm 1 m/S 649 mmHg 51%
    15:00 +15°C° 0 mm 1 m/S 649 mmHg 56%
    16:00 +15°C° 0 mm 1 m/S 649 mmHg 61%
    17:00 +13°C° 0 mm 1 m/S 649 mmHg 68%
    18:00 +11°C° 0 mm 1 m/S 648 mmHg 76%
    19:00 +8°C° 0 mm 1 m/S 648 mmHg 84%
    20:00 +8°C° 0 mm 1 m/S 648 mmHg 84%
    21:00 +8°C° 0 mm 1 m/S 648 mmHg 83%
    22:00 +7°C° 0 mm 1 m/S 648 mmHg 83%
    23:00 +7°C° 0 mm 1 m/S 648 mmHg 83%

    Morgen, 17 Oktober, Mittwoch

    Zeit Temperatur Niederschläge Wind Luftdruck Luftfeuchtigkeit
    00:00 +7°C° 0 mm 1 m/S 648 mmHg 82%
    01:00 +7°C° 0 mm 1 m/S 648 mmHg 82%
    02:00 +6°C° 0 mm 1 m/S 647 mmHg 81%
    03:00 +6°C° 0 mm 1 m/S 647 mmHg 81%
    04:00 +6°C° 0 mm 1 m/S 647 mmHg 81%
    05:00 +6°C° 0 mm 1 m/S 647 mmHg 80%
    06:00 +6°C° 0 mm 1 m/S 647 mmHg 80%
    07:00 +6°C° 0 mm 1 m/S 647 mmHg 79%
    08:00 +8°C° 0 mm 1 m/S 647 mmHg 72%
    09:00 +11°C° 0 mm 1 m/S 648 mmHg 65%
    10:00 +12°C° 0 mm 0 m/S 649 mmHg 57%
    11:00 +14°C° 0 mm 1 m/S 649 mmHg 55%
    12:00 +15°C° 0 mm 1 m/S 649 mmHg 53%
    13:00 +16°C° 0 mm 2 m/S 648 mmHg 51%
    14:00 +15°C° 0 mm 2 m/S 648 mmHg 56%
    15:00 +15°C° 0 mm 2 m/S 648 mmHg 60%
    16:00 +14°C° 0 mm 2 m/S 648 mmHg 65%
    17:00 +12°C° 0 mm 1 m/S 647 mmHg 73%
    18:00 +10°C° 0 mm 1 m/S 647 mmHg 82%
    19:00 +8°C° 0 mm 1 m/S 646 mmHg 90%
    20:00 +8°C° 0 mm 1 m/S 646 mmHg 89%
    21:00 +7°C° 0 mm 1 m/S 646 mmHg 88%
    22:00 +7°C° 0 mm 1 m/S 646 mmHg 87%
    23:00 +7°C° 0 mm 1 m/S 646 mmHg 86%

    übermorgen, 18 Oktober, Donnerstag

    Zeit Temperatur Niederschläge Wind Luftdruck Luftfeuchtigkeit
    00:00 +7°C° 0 mm 1 m/S 646 mmHg 86%
    01:00 +6°C° 0 mm 1 m/S 646 mmHg 86%
    02:00 +6°C° 0 mm 1 m/S 646 mmHg 86%
    03:00 +6°C° 0 mm 1 m/S 646 mmHg 86%
    04:00 +6°C° 0 mm 1 m/S 645 mmHg 86%
    05:00 +6°C° 0 mm 1 m/S 645 mmHg 86%
    06:00 +5°C° 0 mm 1 m/S 645 mmHg 86%
    07:00 +5°C° 0 mm 1 m/S 645 mmHg 86%
    08:00 +8°C° 0 mm 1 m/S 646 mmHg 79%
    09:00 +10°C° 0 mm 1 m/S 647 mmHg 72%
    10:00 +12°C° 0 mm 1 m/S 647 mmHg 65%
    11:00 +13°C° 0 mm 1 m/S 647 mmHg 63%
    12:00 +14°C° 0 mm 2 m/S 648 mmHg 61%
    13:00 +15°C° 0 mm 2 m/S 648 mmHg 59%
    14:00 +14°C° 0 mm 2 m/S 648 mmHg 63%
    15:00 +14°C° 0 mm 2 m/S 647 mmHg 67%
    16:00 +12°C° 0 mm 3 m/S 647 mmHg 72%
    17:00 +10°C° 0 mm 2 m/S 647 mmHg 79%
    18:00 +9°C° 0 mm 2 m/S 647 mmHg 87%
    19:00 +8°C° 0 mm 1 m/S 646 mmHg 94%
    20:00 +8°C° 0 mm 1 m/S 647 mmHg 94%
    21:00 +7°C° 0 mm 1 m/S 647 mmHg 94%
    22:00 +7°C° 0 mm 1 m/S 647 mmHg 93%
    23:00 +7°C° 0 mm 1 m/S 647 mmHg 93%

    19 Oktober, Freitag

    Zeit Temperatur Niederschläge Wind Luftdruck Luftfeuchtigkeit
    00:00 +7°C° 0 mm 1 m/S 647 mmHg 93%
    01:00 +7°C° 0 mm 1 m/S 647 mmHg 92%
    02:00 +6°C° 0 mm 1 m/S 647 mmHg 92%
    03:00 +6°C° 0 mm 1 m/S 647 mmHg 92%
    04:00 +6°C° 0 mm 1 m/S 647 mmHg 92%
    05:00 +6°C° 0 mm 1 m/S 647 mmHg 92%
    06:00 +5°C° 0 mm 1 m/S 647 mmHg 91%
    07:00 +5°C° 0 mm 1 m/S 647 mmHg 91%
    08:00 +7°C° 0 mm 1 m/S 648 mmHg 85%
    09:00 +10°C° 0 mm 1 m/S 649 mmHg 78%
    10:00 +12°C° 0 mm 1 m/S 649 mmHg 71%
    11:00 +13°C° 0 mm 2 m/S 650 mmHg 69%
    12:00 +14°C° 0 mm 2 m/S 650 mmHg 66%
    13:00 +14°C° 0 mm 2 m/S 650 mmHg 63%
    14:00 +14°C° 0 mm 2 m/S 650 mmHg 67%
    15:00 +12°C° 0 mm 3 m/S 650 mmHg 71%
    16:00 +12°C° 0 mm 3 m/S 650 mmHg 75%
    17:00 +10°C° 0 mm 2 m/S 650 mmHg 81%
    18:00 +9°C° 0 mm 2 m/S 650 mmHg 88%
    19:00 +7°C° 0 mm 2 m/S 649 mmHg 95%
    20:00 +8°C° 0 mm 1 m/S 650 mmHg 95%
    21:00 +7°C° 0 mm 1 m/S 650 mmHg 95%
    22:00 +7°C° 0 mm 1 m/S 650 mmHg 95%
    23:00 +6°C° 0 mm 1 m/S 650 mmHg 95%

    20 Oktober, Samstag

    Zeit Temperatur Niederschläge Wind Luftdruck Luftfeuchtigkeit
    00:00 +6°C° 0 mm 1 m/S 650 mmHg 94%
    01:00 +6°C° 0 mm 1 m/S 650 mmHg 94%
    02:00 +5°C° 0 mm 1 m/S 650 mmHg 94%
    03:00 +5°C° 0 mm 1 m/S 650 mmHg 94%
    04:00 +5°C° 0 mm 1 m/S 650 mmHg 94%
    05:00 +5°C° 0 mm 1 m/S 650 mmHg 94%
    06:00 +5°C° 0 mm 1 m/S 650 mmHg 94%
    07:00 +4°C° 0 mm 1 m/S 650 mmHg 93%
    08:00 +6°C° 0 mm 1 m/S 651 mmHg 86%
    09:00 +8°C° 0 mm 1 m/S 652 mmHg 79%
    10:00 +10°C° 0 mm 1 m/S 652 mmHg 72%
    11:00 +11°C° 0 mm 1 m/S 653 mmHg 68%
    12:00 +12°C° 0 mm 2 m/S 653 mmHg 64%
    13:00 +13°C° 0 mm 2 m/S 653 mmHg 60%
    14:00 +13°C° 0 mm 2 m/S 653 mmHg 64%
    15:00 +12°C° 0 mm 2 m/S 653 mmHg 68%
    16:00 +12°C° 0 mm 2 m/S 652 mmHg 72%
    17:00 +9°C° 0 mm 2 m/S 652 mmHg 80%
    18:00 +7°C° 0 mm 2 m/S 652 mmHg 87%
    19:00 +7°C° 0 mm 1 m/S 652 mmHg 95%
    20:00 +6°C° 0 mm 1 m/S 652 mmHg 95%
    21:00 +6°C° 0 mm 1 m/S 652 mmHg 94%
    22:00 +5°C° 0 mm 1 m/S 652 mmHg 94%
    23:00 +5°C° 0 mm 1 m/S 652 mmHg 92%

    21 Oktober, Sonntag

    Zeit Temperatur Niederschläge Wind Luftdruck Luftfeuchtigkeit
    00:00 +5°C° 0 mm 1 m/S 652 mmHg 90%
    01:00 +5°C° 0 mm 1 m/S 652 mmHg 89%
    02:00 +5°C° 0 mm 1 m/S 652 mmHg 88%
    03:00 +4°C° 0 mm 1 m/S 652 mmHg 87%
    04:00 +4°C° 0 mm 1 m/S 651 mmHg 86%
    05:00 +4°C° 0 mm 1 m/S 652 mmHg 85%
    06:00 +4°C° 0 mm 1 m/S 652 mmHg 85%
    07:00 +4°C° 0 mm 1 m/S 652 mmHg 84%
    08:00 +6°C° 0 mm 1 m/S 652 mmHg 76%
    09:00 +9°C° 0 mm 1 m/S 653 mmHg 68%
    10:00 +11°C° 0 mm 1 m/S 653 mmHg 60%
    11:00 +12°C° 0 mm 1 m/S 653 mmHg 56%
    12:00 +13°C° 0 mm 2 m/S 653 mmHg 53%
    13:00 +14°C° 0 mm 2 m/S 653 mmHg 50%
    14:00 +13°C° 0 mm 2 m/S 653 mmHg 55%
    15:00 +13°C° 0 mm 2 m/S 653 mmHg 60%
    16:00 +12°C° 0 mm 2 m/S 653 mmHg 66%
    17:00 +10°C° 0 mm 1 m/S 652 mmHg 74%
    18:00 +8°C° 0 mm 1 m/S 652 mmHg 82%
    19:00 +6°C° 0 mm 1 m/S 651 mmHg 89%
    20:00 +6°C° 0 mm 1 m/S 651 mmHg 87%
    21:00 +6°C° 0 mm 1 m/S 651 mmHg 85%
    22:00 +5°C° 0 mm 1 m/S 651 mmHg 83%
    23:00 +5°C° 0 mm 1 m/S 651 mmHg 82%
    Mehr zeigen